This demonstration page uses our WeatherBlox Daily Observations layout. Learn more.

Left ArrowRight Arrow

Hourly Observations for March 14, 2021

Temp ( °F °C ) Dew Point ( °F °C ) Humidity (%) Winds ( mph kmh ) Pressure ( in mb ) Visibility ( mi km ) Precip ( " mm )
12:53 am 00:53 Clear 31 -0.6 19 -7.2 61 61 ENE 9 15 30.19 1023 10 16.0934 0 0
1:53 am 01:53 Clear 29 -1.7 19 -7.2 66 66 E 10 17 30.19 1022 10 16.0934 0 0
3:53 am 03:53 Clear 29 -1.7 19 -7.2 66 66 ENE 9 15 30.16 1021 10 16.0934 0 0
4:53 am 04:53 Clear 32 0 20 -6.7 61 61 E 12 19 30.13 1020 10 16.0934 0 0
5:53 am 05:53 Clear 31 -0.6 20 -6.7 64 64 ESE 6 9 30.14 1021 10 16.0934 0 0
6:53 am 06:53 Clear 28 -2.2 20 -6.7 72 72 E 8 13 30.15 1021 10 16.0934 0 0
7:53 am 07:53 Sunny 29 -1.7 21 -6.1 72 72 ENE 12 19 30.16 1021 10 16.0934 0 0
8:53 am 08:53 Sunny 34 1.1 23 -5 64 64 ENE 9 15 30.15 1021 10 16.0934 0 0
9:53 am 09:53 Sunny 43 6.1 27 -2.8 53 53 ENE 12 19 30.11 1020 10 16.0934 0 0
10:53 am 10:53 Sunny 56 13.3 26 -3.3 32 32 SE 15 24 30.07 1018 10 16.0934 0 0
11:53 am 11:53 Sunny 58 14.4 25 -3.9 28 28 SSE 21 33 30.04 1017 10 16.0934 0 0
12:53 pm 12:53 Sunny 61 16.1 27 -2.8 27 27 S 18 30 30 1016 10 16.0934 0 0
1:53 pm 13:53 Sunny 62 16.7 28 -2.2 28 28 SSE 25 41 29.97 1015 10 16.0934 0 0
2:53 pm 14:53 Sunny 59 15 24 -4.4 26 26 SSE 25 41 29.95 1014 10 16.0934 0 0
3:53 pm 15:53 Sunny 62 16.7 25 -3.9 24 24 SE 15 24 29.92 1013 10 16.0934 0 0
4:53 pm 16:53 Sunny 61 16.1 25 -3.9 25 25 SE 17 28 29.89 1012 10 16.0934 0 0
5:53 pm 17:53 Sunny 58 14.4 26 -3.3 29 29 SE 21 33 29.88 1012 10 16.0934 0 0
6:53 pm 18:53 Sunny 54 12.2 26 -3.3 34 34 E 15 24 29.87 1012 10 16.0934 0 0
7:53 pm 19:53 Clear 51 10.6 26 -3.3 38 38 E 13 20 29.86 1011 10 16.0934 0 0
8:53 pm 20:53 Clear 48 8.9 26 -3.3 42 42 E 13 20 29.84 1010 10 16.0934 0 0
9:53 pm 21:53 Clear 45 7.2 26 -3.3 48 48 ESE 13 20 29.81 1010 10 16.0934 0 0
10:53 pm 22:53 Clear 45 7.2 26 -3.3 48 48 SSE 15 24 29.78 1008 10 16.0934 0 0
11:53 pm 23:53 Clear 40 4.4 27 -2.8 60 60 SE 8 13 29.77 1008 10 16.0934 0 0

Powered by AerisWeather